Weather History for Watsonville, CA

Change the Weather History Date:

Tuesday, March 26, 2013

  Actual Average Record
Temperature  
Mean Temperature 54 °F 54 °F  
Max Temperature 64 °F 64 °F 70 °F (2003)
Min Temperature 44 °F 43 °F 38 °F (2006)
Degree Days  
Heating Degree Days 11    
Month to date heating degree days 307  
Since 1 July heating degree days 2480  
Cooling Degree Days 0    
Month to date cooling degree days 0  
Year to date cooling degree days 0  
Growing Degree Days 2 (Base 50)    
Moisture  
Dew Point 44 °F    
Average Humidity 75    
Maximum Humidity 89    
Minimum Humidity 60    
Precipitation  
Precipitation 0.00 in - 2.41 in (2011)
Month to date precipitation 0.41  
Year to date precipitation 1.56  
Since 1 July precipitation 12.50  
Sea Level Pressure  
Sea Level Pressure 30.00 in    
Wind  
Wind Speed 4 mph (SSW)    
Max Wind Speed 13 mph    
Max Gust Speed 22 mph    
Visibility 9 miles    
Events      
T = Trace of Precipitation, MM = Missing Value Source: NWS Daily Summary

Daily Weather History Graph

Daily Weather History Graph

Search for Another Location

Airport:

Trip Planner

Search our weather history database for the weather conditions in past years. The results will help you decide how hot, cold, wet, or windy it might be!

Date:

Astronomy

Mar. 26, 2013 Rise Set
Actual Time 7:01 AM PDT 7:24 PM PDT
Civil Twilight 6:35 AM PDT 7:50 PM PDT
Nautical Twilight 6:04 AM PDT 8:21 PM PDT
Astronomical Twilight 5:33 AM PDT 8:52 PM PDT
Moon 7:06 PM PDT 6:20 AM PDT
Length of Visible Light 13h 15m
Length of Day
12h 23m
Full, 100% of the Moon is Illuminated
Mar 26
Full
Mar 27
Full
Apr 2
Last Quarter
Apr 10
New
Apr 18
First Quarter

Hourly Weather History & Observations

Time (PDT) Temp. Windchill Dew Point Humidity Pressure Visibility Wind Dir Wind Speed Gust Speed Precip Events Conditions
12:42 AM 46.4 °F 45.2 °F 42.8 °F 87% 30.02 in 9.0 mi North 3.5 mph - N/A   Mostly Cloudy
12:53 AM 46.0 °F 43.9 °F 42.1 °F 86% 30.01 in 9.0 mi NNE 4.6 mph - N/A   Overcast
1:53 AM 48.0 °F - 43.0 °F 83% 30.02 in 9.0 mi Variable 3.5 mph - N/A   Overcast
2:33 AM 46.4 °F - 42.8 °F 87% 30.02 in 9.0 mi Calm Calm - N/A   Partly Cloudy
2:53 AM 45.0 °F 43.5 °F 41.0 °F 86% 30.01 in 9.0 mi NNW 3.5 mph - N/A   Clear
3:53 AM 45.0 °F - 41.0 °F 86% 30.00 in 9.0 mi Calm Calm - N/A   Clear
4:53 AM 44.1 °F 42.5 °F 41.0 °F 89% 29.99 in 9.0 mi NNW 3.5 mph - N/A   Mostly Cloudy
5:53 AM 44.1 °F 42.5 °F 41.0 °F 89% 30.00 in 9.0 mi WNW 3.5 mph - N/A   Overcast
6:53 AM 44.1 °F - 41.0 °F 89% 30.00 in 8.0 mi Calm Calm - N/A   Mostly Cloudy
7:53 AM 46.0 °F - 42.1 °F 86% 30.01 in 7.0 mi Calm Calm - N/A   Clear
8:53 AM 50.0 °F - 43.0 °F 77% 30.01 in 8.0 mi Calm Calm - N/A   Mostly Cloudy
9:53 AM 52.0 °F - 43.0 °F 71% 30.02 in 10.0 mi Calm Calm - N/A   Partly Cloudy
10:53 AM 55.0 °F - 44.1 °F 67% 30.02 in 10.0 mi Calm Calm - N/A   Clear
11:53 AM 57.0 °F - 45.0 °F 64% 30.02 in 10.0 mi SSW 4.6 mph - N/A   Clear
12:53 PM 59.0 °F - 46.0 °F 62% 30.01 in 10.0 mi WSW 4.6 mph - N/A   Clear
1:53 PM 61.0 °F - 46.9 °F 60% 29.99 in 10.0 mi SSW 10.4 mph - N/A   Clear
2:53 PM 61.0 °F - 46.9 °F 60% 29.98 in 10.0 mi SSW 8.1 mph - N/A   Clear
3:53 PM 60.1 °F - 46.9 °F 62% 29.96 in 10.0 mi SSW 8.1 mph - N/A   Clear
4:53 PM 57.9 °F - 48.0 °F 70% 29.96 in 10.0 mi SW 8.1 mph - N/A   Clear
5:53 PM 54.0 °F - 46.9 °F 77% 29.97 in 8.0 mi SSW 6.9 mph - N/A   Clear
6:53 PM 51.1 °F - 46.9 °F 86% 29.98 in 7.0 mi South 6.9 mph - N/A   Scattered Clouds
7:02 PM 51.8 °F - 46.4 °F 82% 29.98 in 7.0 mi South 5.8 mph - N/A   Mostly Cloudy
7:53 PM 51.1 °F - 46.0 °F 83% 29.99 in 10.0 mi SE 6.9 mph - N/A   Overcast
8:53 PM 51.1 °F - 46.0 °F 83% 30.00 in 9.0 mi East 6.9 mph - N/A   Overcast
9:53 PM 51.1 °F - 46.9 °F 86% 30.01 in 9.0 mi East 4.6 mph - N/A   Overcast
10:53 PM 51.1 °F - 46.0 °F 83% 30.01 in 9.0 mi East 5.8 mph - N/A   Overcast
11:53 PM 51.1 °F - 46.0 °F 83% 30.01 in 9.0 mi NE 4.6 mph - N/A   Overcast